Wind_Speed
26 28 29 29 29 33 36 36 39 42 45 48 49 51 52 55 57 58 57 57 57 58 57 57 59 62 62 63 65 67 68 69 71 73 72 71 70 69 70 70 70 71 72
29 30 31 32 34 35 38 39 42 45 48 49 50 52 54 56 54 54 56 58 60 60 62 63 64 65 68 70 72 73 74 75 77 80 80 79 77 76 74 73 73 74 76
27 29 31 35 36 39 41 44 46 47 49 51 51 52 51 50 52 54 56 59 61 61 64 67 69 73 76 78 80 80 80 79 79 81 82 82 83 82 78 74 74 75 75
26 25 33 37 40 42 44 45 47 46 47 49 50 50 49 51 53 55 58 60 63 67 70 74 78 79 81 82 82 83 84 84 84 81 82 83 84 84 81 78 76 74 74
29 33 36 38 41 41 43 46 48 50 50 47 46 47 49 52 54 57 60 64 68 73 77 80 82 82 83 83 83 84 84 84 84 84 83 84 86 92 90 82 78 77 78
41 40 40 41 41 41 41 42 44 47 51 51 52 52 51 53 56 60 66 72 76 79 82 84 84 84 82 83 83 83 84 84 84 86 89 92 91 92 96 94 88 84 82
43 42 43 46 46 44 41 42 41 43 47 50 51 54 59 63 67 73 77 80 82 85 86 85 85 84 85 85 84 83 84 87 87 88 88 89 90 88 88 90 90 89 86
43 44 46 44 44 43 43 43 44 46 47 50 55 58 63 68 73 79 82 83 85 84 81 81 81 81 82 82 82 82 83 84 83 81 80 76 70 65 65 67 69 67 67
47 41 38 38 37 37 40 42 44 46 51 56 61 66 72 76 80 84 85 84 81 81 79 81 82 82 83 83 82 79 74 69 63 58 55 51 48 44 48 50 48 47 46
42 37 37 39 40 41 42 46 51 56 60 65 71 76 80 83 86 86 83 81 81 81 81 81 83 83 81 77 71 63 57 52 49 42 41 42 43 45 47 50 51 49 45
36 34 34 37 39 42 46 51 56 62 67 70 75 80 84 87 88 86 81 82 82 82 83 81 77 74 69 63 60 56 49 43 44 44 44 44 45 45 47 48 48 47 46
32 33 37 40 44 49 53 58 62 67 72 76 81 84 86 87 85 79 78 80 83 82 78 73 69 66 63 60 55 47 42 43 45 45 47 49 50 50 51 51 50 50 48
35 37 41 43 48 52 56 62 67 72 76 80 84 87 88 89 90 89 90 91 89 85 68 69 68 64 58 51 43 41 43 44 46 50 52 53 53 51 51 52 53 53 52
38 41 44 49 53 57 62 68 72 77 81 86 88 90 90 90 88 91 90 87 83 74 70 72 63 52 44 39 39 42 44 47 51 53 52 51 50 50 50 51 51 51 51
42 45 49 54 58 62 68 73 77 80 84 87 89 91 89 89 91 86 82 76 65 65 66 68 49 43 40 40 42 44 49 53 53 50 48 47 46 47 47 47 46 47 46
45 49 53 57 62 68 72 76 81 86 89 90 93 90 89 89 84 77 64 53 54 62 71 49 42 42 41 44 46 50 52 52 50 47 44 44 44 43 42 40 40 40 41
48 53 57 63 68 73 78 83 86 89 90 90 90 90 88 85 80 72 67 59 54 60 51 37 40 42 44 47 51 52 50 49 47 45 45 44 44 43 42 39 34 32 33
54 58 63 69 74 78 81 84 87 88 89 89 91 90 85 77 71 66 55 39 49 56 36 36 42 43 46 51 51 50 48 46 46 47 47 44 40 39 38 35 34 34 33
59 64 69 73 76 78 82 86 89 88 88 90 90 87 76 69 64 55 42 32 48 32 35 39 40 42 48 49 48 46 44 43 43 41 39 36 32 29 30 31 32 32 28
62 66 70 74 78 82 85 89 88 87 89 90 87 79 70 60 46 34 21 20 23 29 35 37 40 44 45 46 44 42 40 35 32 32 32 29 24 21 21 21 20 18 21
66 69 73 78 82 84 86 88 88 89 90 87 77 66 55 42 26 23 22 23 27 32 34 36 41 43 41 41 40 38 29 26 29 30 29 26 23 18 14 12 11 12 16
68 72 76 80 83 84 87 86 87 89 86 77 64 50 37 25 27 24 22 26 30 34 35 37 42 40 39 39 37 30 25 27 28 28 26 25 23 19 14 9 5 3 8
72 75 78 80 82 85 85 87 89 85 76 62 49 38 27 27 28 25 25 29 33 36 36 38 42 37 36 35 33 25 24 27 28 26 25 24 20 16 13 8 2 3 8
74 77 79 81 82 84 85 87 83 72 61 50 40 30 26 27 29 26 27 31 35 37 37 39 42 35 34 31 28 21 23 25 25 23 22 21 19 19 18 12 6 6 11
74 76 78 80 81 82 83 82 75 61 51 40 34 27 26 27 27 26 28 31 35 36 36 39 43 34 33 30 25 19 18 20 21 20 18 18 18 18 18 16 9 7 10
74 76 78 80 80 82 81 76 64 52 42 34 30 26 26 28 26 26 28 31 34 36 35 38 42 35 33 29 25 21 17 17 18 19 16 15 14 14 14 12 9 8 11
Wind_Direction
306 308 308 304 303 301 302 303 303 303 303 307 308 308 308 310 310 311 312 312 311 310 309 306 303 303 304 302 301 300 299 297 295 293 289 287 285 284 284 282 281 280 278
302 300 301 299 297 293 297 298 297 299 304 305 305 305 306 307 309 309 308 306 307 308 307 307 307 305 303 301 300 298 296 296 294 291 289 286 283 282 282 280 278 276 274
293 295 292 289 288 292 294 294 298 300 302 302 303 304 305 306 306 305 306 309 308 306 305 305 303 302 302 301 299 297 295 292 290 288 287 285 283 281 279 278 277 275 272
285 285 284 288 290 291 293 296 298 297 297 299 302 303 305 305 304 306 306 305 306 305 306 305 303 301 299 298 296 294 292 290 289 287 286 286 285 281 276 275 275 272 270
288 286 286 289 291 295 299 298 298 301 300 298 299 301 302 302 304 305 306 305 305 304 301 299 298 298 296 296 294 293 291 289 287 286 284 283 282 284 282 276 271 268 266
296 296 298 298 299 298 296 296 296 298 302 307 307 306 304 305 305 305 305 304 303 301 300 300 300 299 298 295 293 292 291 290 287 286 283 280 278 277 277 278 273 267 263
297 298 299 302 299 299 297 295 298 297 300 302 305 308 311 312 311 309 305 304 303 302 302 301 298 296 295 293 292 291 290 288 287 285 284 283 281 278 273 270 268 266 263
298 296 301 296 299 301 303 303 303 305 309 311 311 310 308 308 306 305 305 305 303 301 299 297 297 297 296 294 294 293 291 290 289 286 284 283 281 280 277 275 274 272 270
298 303 303 302 301 300 305 308 310 312 313 314 314 311 310 309 308 308 307 307 305 303 303 301 300 299 298 298 298 298 297 294 291 287 286 284 284 284 286 286 280 280 276
311 313 309 309 311 315 315 317 318 319 317 316 314 312 310 309 309 309 310 308 306 306 305 304 303 304 303 304 303 300 296 295 294 292 288 285 284 282 280 279 280 279 276
313 309 309 315 315 314 315 315 318 316 315 312 309 309 309 309 311 312 311 307 307 307 308 308 306 305 304 302 301 300 299 297 293 292 291 289 285 281 279 278 278 277 274
305 310 314 314 318 318 317 314 314 313 312 312 310 309 310 310 311 312 308 307 309 310 311 310 308 307 305 304 300 298 297 295 295 294 293 290 287 284 280 277 274 273 272
313 316 311 315 315 314 313 312 311 311 310 310 310 310 313 313 315 316 316 314 313 314 314 316 313 310 306 302 301 301 299 299 298 297 296 292 288 283 277 274 272 270 268
311 310 313 315 314 313 313 313 312 313 312 312 313 316 316 317 317 315 316 315 314 315 316 319 316 309 308 308 306 305 303 302 301 299 296 293 289 286 281 276 271 267 265
312 314 314 314 314 314 315 315 315 313 313 315 316 316 318 318 317 317 316 313 314 310 311 313 313 311 313 311 310 309 308 305 303 300 297 295 291 286 283 283 279 271 265
312 312 311 313 316 317 316 315 316 317 316 317 318 319 318 317 316 315 306 314 298 296 303 307 309 311 315 315 314 312 309 308 305 304 301 295 290 287 284 284 284 280 269
309 311 314 317 318 317 320 320 318 317 318 318 318 318 317 317 314 312 312 313 291 297 312 310 312 317 318 316 314 314 314 313 311 307 302 296 290 285 281 278 280 281 273
314 316 316 317 319 320 319 316 316 318 320 318 318 318 316 315 313 312 311 310 289 302 310 317 317 320 319 317 318 320 319 317 315 310 304 299 293 288 281 276 273 274 271
317 316 318 318 317 315 315 317 319 320 319 319 317 316 317 316 315 315 314 267 288 309 317 318 321 320 319 320 322 323 322 322 319 317 313 308 304 296 284 277 272 268 258
315 316 316 315 315 317 319 319 320 319 319 317 319 320 320 320 321 324 332 327 329 324 320 323 323 323 323 323 327 326 327 329 334 337 338 334 326 311 297 287 275 253 245
317 318 316 317 318 319 319 320 320 319 319 321 322 320 320 323 330 334 333 333 330 327 326 326 329 329 325 329 329 332 337 343 341 342 341 341 341 342 332 311 283 254 244
317 317 318 319 318 318 318 319 319 320 322 322 321 321 320 325 326 327 328 329 332 332 331 332 333 330 331 333 333 339 342 343 344 343 344 344 343 341 341 341 335 230 200
318 317 317 317 317 318 319 320 322 323 322 323 322 322 318 320 322 323 323 329 331 334 333 335 336 333 333 335 337 339 341 344 347 352 357 359 4 11 15 19 352 166 152
315 316 316 317 318 319 320 322 324 323 322 323 322 318 315 319 321 318 321 328 331 334 334 336 338 334 335 337 338 336 338 346 351 358 2 7 18 28 32 41 61 108 132
313 315 316 317 318 319 322 323 324 321 322 320 319 314 315 318 321 319 319 325 329 332 333 338 339 335 336 336 337 335 334 342 350 358 3 8 16 24 32 41 61 110 131
314 315 316 318 319 321 323 325 323 319 318 317 316 310 312 315 320 320 320 324 328 332 334 339 341 337 335 337 335 329 325 335 344 355 357 2 9 17 24 40 58 96 120
Height
5821 5818 5818 5817 5815 5811 5810 5809 5805 5800 5795 5790 5784 5779 5773 5767 5762 5756 5750 5744 5741 5737 5734 5730 5724 5721 5716 5711 5705 5700 5696 5693 5687 5685 5685 5683 5681 5679 5677 5675 5672 5669 5667
5817 5816 5815 5812 5810 5808 5806 5802 5798 5792 5787 5782 5777 5772 5767 5761 5755 5748 5742 5737 5732 5727 5721 5715 5710 5705 5700 5694 5689 5684 5679 5675 5665 5659 5659 5660 5661 5657 5656 5653 5650 5648 5646
5815 5815 5811 5807 5804 5801 5798 5793 5790 5785 5778 5773 5769 5765 5760 5754 5747 5740 5733 5727 5720 5713 5706 5701 5695 5689 5682 5676 5669 5662 5657 5653 5648 5636 5631 5630 5629 5631 5633 5632 5627 5624 5622
5812 5810 5804 5801 5797 5794 5792 5787 5781 5777 5772 5766 5760 5754 5749 5744 5737 5731 5724 5716 5708 5699 5692 5685 5679 5672 5664 5656 5649 5640 5633 5627 5623 5618 5609 5602 5598 5598 5604 5607 5604 5600 5597
5803 5802 5800 5797 5793 5788 5783 5776 5769 5763 5759 5756 5753 5747 5741 5734 5727 5719 5711 5703 5694 5686 5677 5668 5661 5654 5644 5635 5628 5618 5610 5604 5597 5593 5589 5584 5575 5565 5562 5574 5578 5576 5572
5793 5790 5788 5786 5784 5780 5773 5767 5760 5753 5746 5742 5737 5732 5728 5723 5716 5708 5699 5689 5680 5667 5654 5645 5637 5628 5618 5609 5601 5592 5584 5577 5570 5564 5559 5553 5552 5546 5534 5530 5540 5543 5548
5784 5781 5777 5772 5767 5766 5763 5757 5753 5747 5740 5734 5728 5721 5713 5706 5698 5689 5679 5670 5658 5645 5634 5622 5614 5605 5595 5586 5579 5570 5561 5551 5544 5535 5530 5522 5513 5508 5505 5500 5500 5501 5509
5778 5773 5773 5767 5761 5753 5748 5744 5740 5736 5731 5725 5718 5712 5704 5696 5686 5674 5662 5650 5638 5626 5614 5601 5592 5582 5572 5562 5554 5545 5535 5524 5514 5505 5496 5490 5485 5479 5473 5472 5470 5473 5475
5770 5768 5762 5757 5753 5748 5743 5737 5732 5727 5721 5715 5706 5698 5687 5677 5665 5654 5641 5628 5615 5603 5591 5577 5565 5555 5545 5534 5524 5514 5505 5495 5487 5480 5475 5470 5465 5462 5456 5454 5454 5452 5456
5761 5756 5751 5746 5741 5737 5731 5726 5720 5715 5707 5698 5688 5676 5666 5655 5645 5634 5620 5606 5592 5582 5569 5556 5542 5530 5516 5505 5496 5489 5482 5476 5468 5463 5459 5455 5452 5449 5446 5442 5439 5439 5439
5756 5751 5746 5740 5736 5730 5724 5717 5710 5702 5693 5685 5674 5661 5649 5635 5624 5612 5599 5581 5570 5557 5545 5531 5518 5506 5496 5486 5477 5470 5465 5459 5452 5448 5444 5442 5437 5435 5431 5428 5426 5424 5423
5748 5743 5738 5732 5725 5719 5712 5705 5697 5687 5678 5667 5655 5643 5628 5615 5604 5594 5580 5562 5549 5536 5522 5509 5498 5486 5476 5468 5461 5455 5450 5444 5438 5433 5429 5425 5420 5417 5413 5411 5410 5409 5409
5739 5736 5729 5724 5718 5711 5703 5693 5684 5674 5663 5650 5636 5623 5607 5591 5581 5565 5551 5537 5524 5513 5502 5490 5479 5468 5460 5452 5446 5440 5435 5429 5424 5418 5413 5407 5401 5398 5395 5393 5392 5392 5393
5731 5725 5719 5713 5705 5698 5689 5679 5668 5656 5642 5629 5614 5600 5584 5573 5558 5542 5529 5513 5502 5492 5484 5473 5463 5453 5446 5441 5434 5428 5422 5416 5410 5403 5395 5389 5383 5379 5376 5373 5374 5375 5376
5721 5715 5708 5701 5693 5685 5674 5661 5649 5637 5623 5608 5594 5579 5565 5549 5535 5522 5508 5496 5486 5478 5469 5461 5451 5442 5436 5429 5423 5416 5409 5401 5394 5386 5379 5373 5367 5362 5358 5357 5358 5358 5359
5711 5705 5698 5690 5680 5669 5658 5648 5633 5616 5602 5587 5572 5558 5545 5531 5518 5506 5495 5485 5475 5467 5459 5449 5440 5433 5425 5417 5411 5404 5395 5386 5377 5371 5365 5358 5352 5347 5345 5343 5341 5341 5342
5702 5694 5685 5675 5665 5655 5642 5628 5614 5600 5586 5570 5556 5541 5524 5511 5498 5487 5476 5468 5461 5455 5447 5439 5430 5422 5415 5407 5399 5391 5381 5371 5362 5355 5348 5343 5337 5332 5330 5330 5329 5328 5327
5689 5680 5670 5660 5649 5636 5625 5613 5599 5584 5568 5552 5538 5524 5509 5494 5482 5469 5460 5456 5450 5444 5438 5428 5420 5413 5404 5396 5386 5377 5367 5358 5349 5340 5331 5326 5322 5317 5315 5315 5316 5316 5316
5675 5665 5655 5644 5633 5622 5610 5595 5580 5566 5549 5533 5519 5506 5492 5478 5464 5454 5447 5444 5439 5436 5429 5420 5412 5405 5396 5386 5377 5367 5358 5349 5339 5328 5319 5313 5309 5305 5302 5302 5302 5303 5303
5663 5653 5642 5630 5618 5604 5590 5575 5563 5550 5534 5518 5501 5484 5470 5461 5452 5444 5439 5437 5433 5428 5421 5413 5405 5397 5387 5377 5368 5359 5351 5341 5333 5323 5314 5306 5300 5296 5293 5291 5291 5292 5294
5648 5637 5625 5613 5599 5586 5573 5561 5547 5533 5517 5500 5484 5471 5461 5453 5446 5441 5436 5433 5428 5422 5415 5407 5399 5389 5380 5370 5361 5353 5345 5338 5330 5322 5314 5306 5300 5294 5290 5287 5286 5287 5289
5633 5622 5611 5598 5585 5572 5560 5547 5532 5516 5499 5484 5471 5462 5454 5448 5443 5438 5434 5429 5423 5416 5408 5400 5392 5382 5373 5364 5356 5348 5342 5336 5329 5321 5313 5306 5300 5294 5290 5288 5286 5285 5287
5617 5606 5596 5584 5570 5555 5542 5529 5513 5497 5482 5471 5461 5454 5448 5444 5438 5434 5429 5423 5417 5410 5403 5395 5387 5377 5368 5360 5351 5345 5340 5334 5327 5320 5314 5307 5301 5295 5291 5289 5287 5287 5289
5601 5591 5580 5568 5555 5541 5526 5511 5495 5482 5470 5461 5453 5447 5443 5439 5434 5428 5423 5418 5411 5405 5397 5390 5381 5372 5365 5356 5349 5343 5339 5333 5327 5322 5316 5310 5305 5300 5296 5293 5292 5292 5294
5586 5575 5563 5551 5538 5525 5512 5497 5482 5469 5460 5452 5446 5442 5438 5433 5428 5423 5418 5412 5406 5400 5393 5385 5376 5368 5361 5353 5347 5342 5338 5334 5329 5323 5319 5314 5309 5305 5302 5299 5298 5298 5298
5571 5560 5548 5536 5524 5510 5497 5484 5470 5459 5452 5445 5440 5435 5431 5427 5422 5417 5412 5406 5400 5394 5387 5380 5371 5363 5357 5350 5344 5339 5336 5332 5328 5324 5320 5317 5313 5310 5307 5305 5303 5303 5303